Location: Clarks Summit,Pa.
(41.5000°N, 75.6000°W)
Time: 17:50:56
(UTC-05:00)

Envisat - Visible Passes

Search period start: 15 February 2019 00:00
Search period end: 25 February 2019 00:00
Orbit: 764 x 766 km, 98.2° (Epoch: 15 February)

Date Brightness Start Highest point End Pass type
(mag) Time Alt. Az. Time Alt. Az. Time Alt. Az.
15 Feb 2.9 18:37:58 10° SSE 18:43:03 82° ENE 18:48:09 10° N visible
15 Feb 6.2 20:21:12 10° WSW 20:22:40 11° W 20:24:09 10° WNW visible
16 Feb 3.5 18:01:48 10° SE 18:06:27 38° ENE 18:11:06 10° N visible
16 Feb 5.2 19:41:21 10° SSW 19:45:32 26° W 19:49:44 10° NW visible
17 Feb 6.4 06:12:23 10° ENE 06:14:30 12° E 06:16:35 10° ESE visible
17 Feb 3.7 19:03:37 10° S 19:08:36 57° W 19:13:37 10° NNW visible
18 Feb 3.0 18:26:50 10° SSE 18:31:52 65° ENE 18:36:54 10° N visible
18 Feb 6.0 20:08:35 10° WSW 20:11:20 15° W 20:14:05 10° WNW visible
19 Feb 4.8 19:29:44 10° SSW 19:34:15 32° W 19:38:48 10° NNW visible
20 Feb 3.3 18:52:19 10° S 18:57:22 72° WSW 19:02:28 10° NNW visible
21 Feb 3.2 18:15:47 10° SSE 18:20:41 52° ENE 18:25:37 10° N visible
21 Feb 5.7 19:56:30 10° SW 19:59:59 19° W 20:03:30 10° NW visible
22 Feb 4.4 19:18:13 10° SSW 19:22:59 40° W 19:27:47 10° NNW visible
23 Feb 3.0 18:41:05 10° SSE 18:46:10 90° NE 18:51:16 10° NNW visible
24 Feb 3.4 18:04:48 10° SE 18:09:31 41° ENE 18:14:17 10° N visible
24 Feb 5.4 19:44:40 10° SW 19:48:41 23° W 19:52:43 10° NW visible
